Hourly Data Report for June 17, 2018

TORONTO CITY
ONTARIO
Current Station Operator: ECCC - MSC

43°40'00.000" N
79°24'00.000" W
112.50 m
6158355
71508
XTO

Download Data

Hourly Data (June 2018)
Hourly Data Report for June 17, 2018
TIME
LST
Temp Definition
°C
Dew Point Definition
°C
Rel Hum Definition
%
Precip. Amount Definition
mm

Wind Dir Definition
10's deg

Wind Spd Definition
km/h
Visibility Definition
km
Stn Press Definition
kPa
Hmdx Definition


Wind Chill Definition


Weather Definition


00:00 20.4 11.4 56 0.0 LegendMM LegendMM   100.28     LegendNANA
01:00 20.0 12.1 60 0.0 LegendMM LegendMM   100.26     LegendNANA
02:00 19.3 12.8 66 0.0 LegendMM LegendMM   100.24     LegendNANA
03:00 18.9 13.3 70 0.0 LegendMM LegendMM   100.22     LegendNANA
04:00 18.3 13.5 73 0.0 LegendMM LegendMM   100.20     LegendNANA
05:00 18.3 13.5 73 0.0 LegendMM LegendMM   100.36     LegendNANA
06:00 19.2 14.2 73 0.0 LegendMM LegendMM   100.43     LegendNANA
07:00 21.8 14.9 65 0.0 LegendMM LegendMM   100.44 26   LegendNANA
08:00 24.2 13.5 51 0.0 LegendMM LegendMM   100.46 27   LegendNANA
09:00 24.2 13.5 51 0.0 LegendMM LegendMM   100.44 27   LegendNANA
10:00 24.7 13.7 50 0.0 LegendMM LegendMM   100.43 28   LegendNANA
11:00 26.1 14.7 49 0.0 LegendMM LegendMM   100.40 30   LegendNANA
12:00 28.7 15.6 45 0.0 LegendMM LegendMM   100.38 33   LegendNANA
13:00 29.0 14.7 42 0.0 LegendMM LegendMM   100.32 33   LegendNANA
14:00 29.6 15.2 42 0.0 LegendMM LegendMM   100.26 34   LegendNANA
15:00 29.8 15.4 42 0.0 LegendMM LegendMM   100.22 34   LegendNANA
16:00 29.7 14.4 39 0.0 LegendMM LegendMM   100.17 33   LegendNANA
17:00 29.6 15.4 42 0.0 LegendMM LegendMM   100.09 34   LegendNANA
18:00 28.6 16.3 47 0.0 LegendMM LegendMM   100.05 33   LegendNANA
19:00 27.2 16.0 50 0.0 LegendMM LegendMM   100.02 32   LegendNANA
20:00 26.1 16.5 56 0.0 LegendMM LegendMM   99.99 31   LegendNANA
21:00 25.3 16.6 59 0.0 LegendMM LegendMM   100.05 30   LegendNANA
22:00 25.0 17.0 61 0.0 LegendMM LegendMM   100.06 30   LegendNANA
23:00 23.7 17.3 67 0.0 LegendMM LegendMM   100.04 29   LegendNANA

Notes on Data Quality.

Legend

  • E = Estimated
  • M = Missing
  • NA = Not Available*
  • [empty] = Indicates an unobserved value
Date modified: